EW0051 Weather Reports


time (UTC)temp
F
wind
direction
speed
knots
gust
knots
rain 1hr
in
rain 24hr
in
rain mn
in
humidity
%
barometer
mb
20260507064634 51 324 0.0 0.0 0.00 0.00 0.00 85 1014.1
20260507064157 51 341 0.0 2.6 0.00 0.00 0.00 86 1014.0
20260507063632 51 338 0.0 2.6 0.00 0.00 0.00 86 1014.1
20260507063148 50 47 0.0 3.5 0.00 0.00 0.00 87 1014.0
20260507062615 50 26 0.9 7.8 0.00 0.00 0.00 88 1013.9
20260507062140 49 39 2.6 7.8 0.00 0.00 0.00 89 1013.9
20260507061700 49 32 0.0 3.5 0.00 0.00 0.00 89 1014.0
20260507061121 49 17 0.0 3.5 0.00 0.00 0.00 89 1013.7
20260507060649 48 356 0.0 4.3 0.00 0.00 0.00 89 1013.7
20260507060115 48 24 0.0 4.3 0.00 0.00 0.00 89 1013.7
20260507055630 47 22 0.0 2.6 0.00 0.00 0.00 90 1013.7
20260507055150 47 26 0.0 2.6 0.00 0.00 0.00 90 1013.6
20260507054621 47 39 0.0 2.6 0.00 0.00 0.00 90 1013.6
20260507054059 47 46 0.0 3.5 0.00 0.00 0.00 90 1013.6
20260507053620 46 20 0.0 3.5 0.00 0.00 0.00 90 1013.5
20260507053143 45 34 0.0 3.5 0.00 0.00 0.00 90 1013.5
20260507052709 45 13 0.0 3.5 0.00 0.00 0.00 90 1013.4
20260507051559 43 37 0.0 1.7 0.00 0.00 0.00 89 1013.4
20260507051128 43 37 0.0 1.7 0.00 0.00 0.00 89 1013.4
20260507050554 42 44 0.0 0.0 0.00 0.00 0.00 89 1013.3
20260507050128 42 44 0.0 0.0 0.00 0.00 0.00 88 1013.3
20260507045603 42 44 0.0 0.0 0.00 0.00 0.00 88 1013.3
20260507045131 42 44 0.0 0.0 0.00 0.00 0.00 88 1013.3
20260507044653 41 44 0.0 0.0 0.00 0.00 0.00 88 1013.2
20260507043645 41 44 0.0 0.0 0.00 0.00 0.00 87 1013.1
20260507042638 41 44 0.0 0.0 0.00 0.00 0.00 87 1013.1
20260507042116 41 44 0.0 0.0 0.00 0.00 0.00 87 1013.0
20260507041644 41 44 0.0 0.0 0.00 0.00 0.00 87 1012.9
20260507040546 41 44 0.0 0.0 0.00 0.00 0.00 87 1012.9
20260507040111 41 44 0.0 0.0 0.00 0.00 0.00 86 1012.9
20260507035545 41 44 0.0 0.0 0.00 0.00 0.00 86 1012.8
20260507035111 41 44 0.0 0.0 0.00 0.00 0.00 86 1012.7
20260507034548 41 44 0.0 0.0 0.00 0.00 0.00 86 1012.7
20260507034126 41 44 0.0 0.0 0.00 0.00 0.00 86 1012.6
20260507033605 41 44 0.0 0.0 0.00 0.00 0.00 86 1012.5
20260507033043 41 44 0.0 0.0 0.00 0.00 0.00 86 1012.6
20260507032609 41 44 0.0 0.0 0.00 0.00 0.00 86 1012.6
20260507032145 41 44 0.0 0.0 0.00 0.00 0.00 85 1012.6
20260507031043 42 44 0.0 0.0 0.00 0.00 0.00 85 1012.6
20260507030612 42 44 0.0 0.0 0.00 0.00 0.00 85 1012.4
20260507030042 42 44 0.0 0.0 0.00 0.00 0.00 85 1012.4
20260507025612 42 44 0.0 0.0 0.00 0.00 0.00 85 1012.4
20260507025052 42 44 0.0 0.0 0.00 0.00 0.00 85 1012.4
20260507024628 42 44 0.0 0.0 0.00 0.00 0.00 85 1012.4
20260507024118 42 44 0.0 0.0 0.00 0.00 0.00 85 1012.4
20260507023558 42 44 0.0 0.0 0.00 0.00 0.00 85 1012.4
20260507023135 42 44 0.0 0.0 0.00 0.00 0.00 85 1012.3
20260507022618 42 44 0.0 0.0 0.00 0.00 0.00 85 1012.3
20260507022053 42 44 0.0 0.0 0.00 0.00 0.00 85 1012.3
20260507021717 43 44 0.0 0.0 0.00 0.00 0.00 85 1012.2
20260507020613 43 44 0.0 0.0 0.00 0.00 0.00 85 1012.2
20260507020132 43 44 0.0 0.0 0.00 0.00 0.00 85 1012.2
20260507015603 43 44 0.0 0.0 0.00 0.00 0.00 85 1012.2
20260507015131 43 44 0.0 0.0 0.00 0.00 0.00 85 1012.1
20260507014126 43 44 0.0 0.0 0.00 0.00 0.00 85 1012.0
20260507013119 43 44 0.0 1.7 0.00 0.00 0.00 85 1012.0
20260507012735 43 29 0.0 1.7 0.00 0.00 0.00 85 1012.0
20260507011150 43 26 0.0 0.0 0.00 0.00 0.00 85 1012.1
20260507010135 43 26 0.0 0.0 0.00 0.00 0.00 85 1012.0
20260507005605 43 26 0.0 0.0 0.00 0.00 0.00 85 1012.0
20260507005045 43 27 0.0 1.7 0.00 0.00 0.00 85 1012.0
20260507004618 43 27 0.0 1.7 0.00 0.00 0.00 85 1012.0
20260507004054 43 20 0.0 0.0 0.00 0.00 0.00 85 1012.0
20260507003621 43 20 0.0 0.0 0.00 0.00 0.00 85 1012.0
20260507002613 43 20 0.0 0.9 0.00 0.00 0.00 85 1012.0
20260507002049 43 20 0.0 0.0 0.00 0.00 0.00 85 1011.9
20260507001621 43 22 0.0 0.0 0.00 0.00 0.00 85 1011.9
20260507001050 43 20 0.0 0.0 0.00 0.00 0.00 84 1011.8
20260507000624 43 20 0.0 0.0 0.00 0.00 0.00 84 1011.9
20260506235616 43 20 0.0 0.0 0.00 0.00 0.00 84 1011.9
20260506235052 43 22 0.0 0.0 0.00 0.00 0.00 83 1012.0
20260506234624 43 22 0.0 0.0 0.00 0.00 0.00 83 1012.0
20260506234104 43 22 0.0 0.0 0.00 0.00 0.00 83 1012.0
20260506233632 43 20 0.0 0.0 0.00 0.00 0.00 83 1012.1
20260506233158 44 22 0.0 0.0 0.00 0.00 0.00 83 1012.0
20260506232044 44 22 0.0 0.0 0.00 0.00 0.00 82 1011.9
20260506231613 44 20 0.0 0.0 0.00 0.00 0.00 82 1011.9
20260506231050 44 20 0.0 0.0 0.00 0.00 0.00 82 1011.9
20260506230621 44 20 0.0 0.0 0.00 0.00 0.00 82 1011.9
20260506225613 44 20 0.0 0.0 0.00 0.00 0.00 82 1011.9
20260506225047 44 20 0.0 0.0 0.00 0.00 0.00 81 1011.9
20260506224615 45 20 0.0 0.0 0.00 0.00 0.00 81 1011.8
20260506224047 45 22 0.0 0.0 0.00 0.00 0.00 82 1011.9
20260506223617 45 22 0.0 0.0 0.00 0.00 0.00 82 1011.8
20260506223101 45 20 0.0 0.0 0.00 0.00 0.00 82 1011.8
20260506222633 45 22 0.0 0.0 0.00 0.00 0.00 82 1011.8
20260506222055 45 22 0.0 0.0 0.00 0.00 0.00 82 1011.7
20260506221624 45 20 0.0 0.9 0.00 0.00 0.00 82 1011.7
20260506221107 45 20 0.0 0.9 0.00 0.00 0.00 82 1011.7
20260506220636 46 37 0.0 2.6 0.00 0.00 0.00 82 1011.7
20260506220109 46 37 0.0 2.6 0.00 0.00 0.00 82 1011.7
20260506215639 46 46 0.0 1.7 0.00 0.00 0.00 82 1011.7
20260506215114 46 46 0.0 0.0 0.00 0.00 0.00 82 1011.8
20260506214634 46 57 0.0 0.9 0.00 0.00 0.00 82 1011.6
20260506214111 46 57 0.0 0.9 0.00 0.00 0.00 82 1011.6
20260506213548 46 41 0.0 2.6 0.00 0.00 0.00 81 1011.6
20260506213115 46 33 0.0 2.6 0.00 0.00 0.00 81 1011.6
20260506212103 46 29 0.0 0.0 0.00 0.00 0.00 81 1011.5
20260506211631 46 29 0.0 1.7 0.00 0.00 0.00 81 1011.5
20260506211053 47 29 0.0 1.7 0.00 0.00 0.00 81 1011.4
20260506210615 47 27 0.0 0.9 0.00 0.00 0.00 81 1011.5
20260506210147 47 27 0.0 0.9 0.00 0.00 0.00 81 1011.4
20260506205126 47 22 0.0 1.7 0.00 0.00 0.00 80 1011.5
20260506204645 47 19 0.0 2.6 0.00 0.00 0.00 80 1011.5
20260506203537 47 5 0.0 1.7 0.00 0.00 0.00 80 1011.5
20260506203205 47 0 0.0 1.7 0.00 0.00 0.00 79 1011.5
20260506202205 48 46 0.0 3.5 0.00 0.00 0.00 79 1011.4
20260506201123 48 26 0.0 3.5 0.00 0.00 0.00 78 1011.4
20260506200749 48 16 0.0 3.5 0.00 0.00 0.00 78 1011.4
20260506195218 49 19 0.0 2.6 0.00 0.00 0.00 77 1011.2
20260506194051 49 10 0.0 3.5 0.00 0.00 0.00 76 1011.1
20260506193613 49 27 0.0 3.5 0.00 0.00 0.00 75 1011.1
20260506193130 49 36 0.0 1.7 0.00 0.00 0.00 75 1010.9
20260506192218 50 27 0.0 3.5 0.00 0.00 0.00 74 1010.9
20260506191651 50 13 0.0 4.3 0.00 0.00 0.00 74 1010.9
20260506191210 51 37 0.9 4.3 0.00 0.00 0.00 73 1010.8
20260506190628 51 53 0.9 3.5 0.00 0.00 0.00 73 1010.8
20260506190151 51 338 0.0 4.3 0.00 0.00 0.00 72 1010.7
20260506185712 51 349 0.9 4.3 0.00 0.00 0.00 72 1010.6
20260506184643 52 60 0.0 6.1 0.00 0.00 0.00 71 1010.5
20260506184200 53 359 0.0 5.2 0.00 0.00 0.00 71 1010.4
20260506183632 53 50 0.0 3.5 0.00 0.00 0.00 70 1010.3
20260506183151 53 322 0.9 5.2 0.00 0.00 0.00 71 1010.2
20260506182717 53 10 0.9 5.2 0.00 0.00 0.00 71 1010.3
20260506182137 53 37 0.0 8.7 0.00 0.00 0.00 70 1010.2
20260506181700 54 8 0.9 8.7 0.00 0.00 0.00 69 1010.2
20260506181219 54 356 1.7 4.3 0.00 0.00 0.00 69 1010.1
20260506180733 54 46 0.0 4.3 0.00 0.00 0.00 70 1010.0
20260506175656 54 108 0.0 6.1 0.00 0.00 0.00 70 1010.1
20260506175131 54 9 0.0 6.1 0.00 0.00 0.00 69 1010.0
20260506174652 54 0 0.0 5.2 0.00 0.00 0.00 69 1009.9
20260506174212 54 32 0.0 4.3 0.00 0.00 0.00 69 1009.9
20260506173639 54 24 0.0 4.3 0.00 0.00 0.00 69 1009.9
20260506173159 54 337 0.0 5.2 0.00 0.00 0.00 69 1009.9
20260506172629 54 51 0.9 5.2 0.00 0.00 0.00 68 1009.9
20260506172238 54 16 0.9 5.2 0.00 0.00 0.00 67 1009.8
20260506171848 55 16 0.0 6.1 0.00 0.00 0.00 66 1009.7
20260506170907 56 353 0.9 7.8 0.00 0.00 0.00 64 1009.7
20260506165337 57 125 2.6 8.7 0.00 0.00 0.00 62 1009.7
20260506163621 57 305 0.0 11.3 0.00 0.00 0.00 62 1009.6
20260506163142 57 331 0.9 11.3 0.00 0.00 0.00 61 1009.7
20260506162614 57 36 0.9 6.1 0.00 0.00 0.00 62 1009.5
20260506162132 58 0 1.7 6.1 0.00 0.00 0.00 61 1009.5
20260506161656 59 75 0.9 9.6 0.00 0.00 0.00 61 1009.5
20260506160617 60 12 0.9 9.6 0.00 0.00 0.00 61 1009.5
20260506160133 60 23 0.9 7.8 0.00 0.00 0.00 62 1009.5
20260506155558 60 5 2.6 7.8 0.00 0.00 0.00 61 1009.4
20260506155121 60 342 0.9 7.8 0.00 0.00 0.00 63 1009.4
20260506154641 59 346 0.9 7.8 0.00 0.00 0.00 62 1009.5
20260506154203 59 358 1.7 7.8 0.00 0.00 0.00 63 1009.6
20260506153127 59 94 0.9 7.8 0.00 0.00 0.00 63 1009.5
20260506152551 60 282 1.7 7.8 0.00 0.00 0.00 63 1009.5
20260506152112 60 355 1.7 7.8 0.00 0.00 0.00 63 1009.4
20260506151626 60 127 0.9 6.1 0.00 0.00 0.00 61 1009.4
20260506151047 61 205 1.7 8.7 0.00 0.00 0.00 62 1009.5
20260506150614 61 27 0.0 8.7 0.00 0.00 0.00 63 1009.4
20260506150136 60 23 1.7 11.3 0.00 0.00 0.00 63 1009.4
20260506145558 60 355 0.9 11.3 0.00 0.00 0.00 63 1009.4
20260506145123 60 5 3.5 7.8 0.00 0.00 0.00 63 1009.2
20260506144551 59 5 0.0 6.1 0.00 0.00 0.00 65 1009.3
20260506144116 59 289 0.0 6.1 0.00 0.00 0.00 65 1009.3
20260506143543 59 342 1.7 6.1 0.00 0.00 0.00 65 1009.3
20260506143203 59 342 0.9 5.2 0.00 0.00 0.00 65 1009.3
20260506142139 58 346 0.0 8.7 0.00 0.00 0.00 66 1009.3
20260506141659 58 36 0.9 10.4 0.00 0.00 0.00 66 1009.3
20260506141309 59 348 0.9 10.4 0.00 0.00 0.00 65 1009.3
20260506135543 60 74 1.7 12.2 0.00 0.00 0.00 65 1009.2
20260506135101 60 229 1.7 12.2 0.00 0.00 0.00 65 1009.3
20260506134529 60 5 1.7 6.1 0.00 0.00 0.00 65 1009.2
20260506134146 60 48 0.9 8.7 0.00 0.00 0.00 66 1009.2
20260506133103 60 6 2.6 11.3 0.00 0.00 0.00 65 1009.2
20260506132713 60 22 1.7 8.7 0.00 0.00 0.00 65 1009.2
20260506131541 60 356 0.9 8.7 0.00 0.00 0.00 65 1009.1
20260506131155 60 348 1.7 9.6 0.00 0.00 0.00 64 1009.1
20260506130054 60 348 1.7 9.6 0.00 0.00 0.00 64 1009.1
20260506125548 60 27 1.7 6.1 0.00 0.00 0.00 64 1009.0
20260506125108 59 103 0.0 4.3 0.00 0.00 0.00 63 1009.1
20260506124613 59 0 0.9 6.1 0.00 0.00 0.00 62 1009.1
20260506124219 60 339 0.9 6.1 0.00 0.00 0.00 62 1009.1
20260506123121 60 27 1.7 8.7 0.00 0.00 0.00 60 1008.9
20260506122539 61 57 0.9 8.7 0.00 0.00 0.00 58 1009.1
20260506122100 62 13 0.9 8.7 0.00 0.00 0.00 58 1009.0
20260506121614 62 99 1.7 8.7 0.00 0.00 0.00 58 1008.9
20260506121041 62 228 0.9 4.3 0.00 0.00 0.00 59 1008.8
20260506120610 62 96 0.9 6.1 0.00 0.00 0.00 59 1008.8
20260506120027 62 180 1.7 7.8 0.00 0.00 0.00 59 1008.7
20260506115555 61 30 2.6 7.8 0.00 0.00 0.00 59 1008.7
20260506115029 61 20 0.9 5.2 0.00 0.00 0.00 60 1008.8
20260506114552 60 168 1.7 6.1 0.00 0.00 0.00 59 1008.7
20260506114045 61 39 1.7 6.1 0.00 0.00 0.00 59 1008.7
20260506113600 61 346 0.9 10.4 0.00 0.00 0.00 59 1008.7
20260506113121 61 50 1.7 10.4 0.00 0.00 0.00 60 1008.7
20260506112548 61 3 0.9 6.1 0.00 0.00 0.00 60 1008.7
20260506112111 61 34 0.0 6.1 0.00 0.00 0.00 60 1008.7
20260506111530 60 215 0.9 6.1 0.00 0.00 0.00 60 1008.8
20260506111055 60 341 0.9 4.3 0.00 0.00 0.00 60 1008.7
20260506110528 60 153 0.9 4.3 0.00 0.00 0.00 58 1008.6
20260506110044 61 181 1.7 4.3 0.00 0.00 0.00 57 1008.7
20260506105602 60 23 0.9 4.3 0.00 0.00 0.00 61 1008.6
20260506105116 59 37 1.7 4.3 0.00 0.00 0.00 62 1008.6
20260506104043 58 95 0.0 6.1 0.00 0.00 0.00 61 1008.7
20260506103613 58 187 1.7 6.1 0.00 0.00 0.00 58 1008.7
20260506103034 58 204 1.7 5.2 0.00 0.00 0.00 57 1008.6
20260506102643 58 170 0.9 5.2 0.00 0.00 0.00 57 1008.6
20260506101609 57 267 0.9 4.3 0.00 0.00 0.00 61 1008.7
20260506101032 56 284 0.0 4.3 0.00 0.00 0.00 61 1008.6
20260506100559 56 339 0.0 4.3 0.00 0.00 0.00 62 1008.5
20260506100016 56 262 0.9 4.3 0.00 0.00 0.00 62 1008.5
20260506095627 56 200 0.9 4.3 0.00 0.00 0.00 62 1008.6
20260506095256 56 214 0.0 3.5 0.00 0.00 0.00 62 1008.5
20260506093614 56 32 0.0 3.5 0.00 0.00 0.00 63 1008.5
20260506093030 56 109 0.0 1.7 0.00 0.00 0.00 63 1008.5
20260506092552 56 88 0.0 5.2 0.00 0.00 0.00 64 1008.5
20260506092023 56 81 0.0 5.2 0.00 0.00 0.00 64 1008.5
20260506091534 56 61 0.0 4.3 0.00 0.00 0.00 66 1008.5
20260506091145 56 256 0.0 4.3 0.00 0.00 0.00 65 1008.5
20260506085631 56 239 0.0 2.6 0.00 0.00 0.00 67 1008.5
20260506084608 55 259 0.9 2.6 0.00 0.00 0.00 66 1008.5
20260506084033 55 13 0.0 2.6 0.00 0.00 0.00 66 1008.3
20260506083602 55 328 0.0 2.6 0.00 0.00 0.00 66 1008.5
20260506083124 55 325 0.0 0.9 0.00 0.00 0.00 67 1008.5
20260506082057 55 339 0.9 5.2 0.00 0.00 0.00 65 1008.4
20260506081526 55 180 0.0 5.2 0.00 0.00 0.00 65 1008.3
20260506081044 55 183 0.0 4.3 0.00 0.00 0.00 66 1008.3
20260506080609 55 8 0.0 4.3 0.00 0.00 0.00 67 1008.2
20260506073152 54 207 0.0 4.3 0.00 0.00 0.00 72 1008.0
20260506071541 53 144 0.0 1.7 0.00 0.00 0.00 76 1008.0
20260506071027 53 352 0.0 1.7 0.00 0.00 0.00 78 1008.0
20260506070559 53 358 0.0 2.6 0.00 0.00 0.00 79 1007.9